Regional Weather Roundup
Issued by NWS San Diego, CA

Home | Current Version | Previous Version | Text Only | Print | Product List | Glossary On
Versions: 1 2 3 4 5 6 7 8 9 10 11 12 13 14 15 16 17 18 19 20 21 22 23 24 25 26 27 28 29 30 31 32 33 34 35 36 37 38 39 40 41 42 43 44 45 46 47 48 49 50
554
ASUS46 KSGX 240411
RWRSGX

SAN DIEGO HOURLY WEATHER ROUNDUP
NATIONAL WEATHER SERVICE SAN DIEGO CA
900 PM PDT WED MAY 23 2018

NOTE: "FAIR" INDICATES FEW OR NO CLOUDS BELOW 12,000 FEET WITH NO
SIGNIFICANT WEATHER AND/OR OBSTRUCTIONS TO VISIBILITY.

CAZ042-043-060-061-PZZ750-775-240500-

GREATER SAN DIEGO AREA

CITY           SKY/WX    TMP DP  RH WIND       PRES   REMARKS
SAN DIEGO AP   MOCLDY    63  54  72 W7        30.02R
NATIONAL CITY    N/A     63  57  81 W3        30.02R
CHULA VISTA      N/A     61  56  84 W3        29.92R
IMPERIAL BEACH CLOUDY    62  53  72 W7        30.01R
BROWN FIELD    CLOUDY    60  53  77 W6        30.00R
MIRAMAR MCAS   CLOUDY    63  54  72 W6        30.00R
MONTGOMERY FLD CLOUDY    61  54  77 W7        30.01R
GILLESPIE FLD  CLOUDY    63  55  77 W7        30.00R

$$

NORTH SAN DIEGO COUNTY

CITY           SKY/WX    TMP DP  RH WIND       PRES   REMARKS
CAMP PENDLETON MOCLDY    59  55  87 SW6       29.99R
OCEANSIDE AP   CLOUDY    62  55  77 W7        29.99R
OCEANSIDE HBR    N/A     62  58  87 N1        30.02R
VISTA            N/A     60  55  83 CALM      29.97R
CARLSBAD       CLOUDY    60  56  86 W7        30.00R
DEL MAR          N/A     61  56  83 CALM      30.02R
LA JOLLA SCRIP   N/A     60  56  85 NW2       30.00R
FALLBROOK        N/A     59  58  97 CALM      30.00R
ESCONDIDO        N/A     61  55  80 SW5       30.00R
SAN MARCOS       N/A     60  55  84 SW5       30.04R
POWAY            N/A     61  55  79 CALM      29.99R

$$

EAST SAN DIEGO COUNTY

CITY           SKY/WX    TMP DP  RH WIND       PRES   REMARKS
RAMONA         MOCLDY    58  54  86 W8        30.00R
LA MESA          N/A     60  55  82 CALM      29.94
JAMUL            N/A     59  54  84 CALM      30.00R
CAMPO            N/A     56  51  84 S5        29.97R

$$

ORANGE COUNTY AND THE LOS ANGELES BASIN

CITY           SKY/WX    TMP DP  RH WIND       PRES   REMARKS
JOHN WAYNE AP  PTCLDY    61  55  81 SW5       29.99R
LAGUNA BEACH     N/A     61  57  86 CALM      29.94R
LAKE FOREST FR   N/A     58  51  78 W1        29.88R
HUNTINGTON BCH   N/A     60  56  87 W6        30.00R
LOS ALAMITOS   PTCLDY    60  53  77 NW6       29.99R
FULLERTON      CLEAR     62  54  74 VRB5      29.98R
LONG BEACH     CLEAR     61  53  75 NW8       29.99R
L.A. AP        PTCLDY    60  53  77 W8        29.99R
L.A. DOWNTOWN  CLEAR     61  54  77 CALM      29.98R

$$

THE INLAND EMPIRE

CITY           SKY/WX    TMP DP  RH WIND       PRES   REMARKS
CORONA           N/A     63  54  72 MISG        N/A
CHINO          CLEAR     63  52  67 W12       29.99R
ONTARIO        CLEAR     62  52  69 W10       29.97R
SAN BERNARDINO CLEAR     66  52  59 SW10      29.97R
RIVERSIDE AP   CLEAR     62  53  72 W10       29.98R
MARCH ARB      CLEAR     61  54  77 NW8       29.98R
HORSETHIEF CYN   N/A     63  50  62 CALM      29.97R
PERRIS           N/A     64  56  75 NW3         N/A
HEMET EAST       N/A     64  51  61 W2        29.90R
FRENCH VALLEY  FAIR      59  54  82 S8        30.00R
TEMECULA         N/A     60  56  84 SW3       30.03R

$$

SAN BERNARDINO AND RIVERSIDE COUNTY MOUNTAINS

CITY           SKY/WX    TMP DP  RH WIND       PRES   REMARKS
BIG BEAR AP    CLEAR     52  30  43 CALM      30.15R

$$

SOUTHERN DESERT INCLUDING THE COACHELLA VALLEY

CITY           SKY/WX    TMP DP  RH WIND       PRES   REMARKS
PALM SPRINGS   CLEAR     83  50  31 NW13      29.85R
THOUSAND PALMS   N/A     81  52  36 NW9       29.80R
PALM DESERT      N/A     83  52  34 NE2       26.28S
THERMAL        CLEAR     75  51  43 CALM      29.79R
BLYTHE         CLEAR     85  39  19 S9        29.82R
IMPERIAL AP    CLEAR     85  43  22 S12       29.80R
EL CENTRO NAS  CLEAR     82  44  26 S12       29.82R
YUMA AZ        CLEAR     81  31  16 S9        29.84R
MEXICALI       CLEAR     79  45  29 SE8       29.83R

$$

UPPER DESERT

CITY           SKY/WX    TMP DP  RH WIND       PRES   REMARKS
HESPERIA         N/A     67  42  40 SW12      29.89R
APPLE VALLEY     N/A     69  44  40 NE6       29.91R
PALMDALE       CLEAR     69  41  36 W12       29.94R
LANCASTER      CLEAR     65  48  54 W15       29.95R
EDWARDS AFB    PTCLDY    71  38  30 SW21G28   29.90R
DAGGETT        CLEAR     80  38  22 NW14      29.87R
29 PALMS N     CLEAR     78  40  25 SW13      29.95R
NEEDLES        CLEAR     88  22   9 SW8       29.83R

$$

REGIONAL REPORTS

CITY           SKY/WX    TMP DP  RH WIND       PRES   REMARKS
SANTA BARBARA  MOCLDY    59  52  77 W6        29.98R
SANDBERG       CLEAR     53  48  83 SW6       30.05R
LAS VEGAS NV   CLEAR     85  31  14 S12G18    29.85R
PHOENIX AZ     CLEAR     88  30  12 W13       29.85R
TIJUANA        CLOUDY    59  54  82 NW9       30.03R
ENSENADA NW      N/A     61  32  33 CALM      29.96R

$$

OFFSHORE ISLANDS

CITY           SKY/WX    TMP DP  RH WIND       PRES   REMARKS
CATALINA ARPT  FOG       51  51 100 SW7       30.00R VSB 1/2
SAN CLEMENTE I CLOUDY   N/A N/A N/A W9        30.02R
SAN NICOLAS IS CLOUDY    56  32  40 W9        30.01R

$$

MARINE AND OFFSHORE BUOY REPORTS

STATION/POSITION SKY/WX   TEMP    WIND        PRES    VSBY  SWELL
                          AIR SEA DIR/SP/G                  HT/PER/DIR
                          (F)     (DEG/KT/KT) (MB)    (MI)  (FT/S/D)
TANNER BANKS               58 61              1016.3R
S CLEMENTE BASIN           59 62  270/  8/ 10 1016.1R         5/190/16
SAN NICOLAS IS.               57                N/A           3/200/15
W. S. BARBARA CH              56  310/ 12/ 16 1015.3R         5/190/16
M. S. BARBARA CH           58 57  270/  8/ 12 1015.8R         2/270/16
S. MONICA BASIN                   230/  6/  8 1015.2R         3/200/16
S PEDRO CHANNEL               63                N/A           2/200/17
CMP PENDLETON NS              64                N/A           3/210/17
OCEANSIDE OFFSHR              64                N/A           3/200/17
TORREY PINES OTR              64                N/A           3/200/17
SAN DIEGO BAY                 65              1015.6R
POINT LOMA SOUTH              64                N/A           5/180/17

$$





USA.gov is the U.S. government's official web portal to all federal, state and local government web resources and services.